Simultaneous Nadir Overpasses (SNOs) Predictions

Prediction of SNOs between GOES-16 and NOAA-20 Satellite Orbit:

Table of predicted SNOs for the next 14.0 days since TLE Epoch: 4/10/2021
Index Date Time (GOES-16) GOES-16 Lat,Lon NOAA-20 Lat,Lon Distance(km) Time Diff (sec)
1 04/10/2021 06:32:24 -0.03, -75.20 0.26, -76.48 146.06 80
2 04/11/2021 06:11:01 -0.03, -75.20 -0.79, -71.96 370.29 80
3 04/12/2021 18:32:57 0.03, -75.21 -0.45, -77.26 233.71 80
4 04/13/2021 18:16:54 0.03, -75.22 0.61, -72.74 283.16 80
5 04/15/2021 06:38:42 -0.03, -75.23 0.58, -78.01 316.45 80
6 04/16/2021 06:17:18 -0.03, -75.24 -0.41, -73.48 200.37 80
7 04/17/2021 18:39:15 0.03, -75.25 -0.76, -78.79 403.38 80
8 04/18/2021 18:23:10 0.03, -75.26 0.23, -74.26 113.89 80
9 04/20/2021 06:44:59 -0.02, -75.28 0.96, -79.53 484.74 80
10 04/21/2021 06:23:35 -0.02, -75.29 -0.09, -75.01 32.60 80
11 04/23/2021 18:26:48 0.01, -75.33 -0.08, -75.79 52.82 80
